Regional Weather Roundup
Issued by NWS Sterling, VA

Home | Current Version | Previous Version | Graphics & Text | Print | Product List | Glossary On
Versions: 1 2 3 4 5 6 7 8 9 10 11 12 13 14 15 16 17 18 19 20 21 22 23 24 25 26 27 28 29 30 31 32 33 34 35 36 37 38 39 40 41 42 43 44 45 46 47 48 49 50
655
ASUS41 KLWX 292310
RWRLWX

REGIONAL WEATHER ROUNDUP
NATIONAL WEATHER SERVICE BALTIMORE MD/WASHINGTON DC
700 PM EDT WED MAR 29 2017

Note: "FAIR" indicates few or no clouds below 12,000 feet
with no significant weather and/or obstructions to visibility.
 TC=TEMPERATURE CELSIUS

 * =Non NWS site. Station does not report precipitation (e.g. rain,
    snow, etc.), thunder, or fog.

DCZ001-MDZ009-015-VAZ040>042-051-053>054-300000-
WASHINGTON METRO

CITY           SKY/WX    TMP DP  RH WIND       PRES   REMARKS
WASHINGTON NAT PTCLDY    63  40  42 N12       30.12R
DULLES         PTCLDY    62  35  36 N10       30.12R
ANDREWS AFB    CLEAR     59  36  42 N10       30.11R
FT BELVOIR     CLEAR     65  35  33 NW10      30.11R
QUANTICO       PTCLDY    65  36  34 N12       30.12R
COLLEGE PARK*  CLEAR     60  35  37 N7        30.12R
LEESBURG*      CLEAR     63  39  42 N6        30.13R
MANASSAS*      CLEAR     62  37  39 NE9       30.12R

$$

MDZ006>007-011-014-300000-
BALTIMORE METRO

CITY           SKY/WX    TMP DP  RH WIND       PRES   REMARKS
BWI AIRPORT    PTCLDY    60  31  33 N9        30.12R
MD SCIENCE CTR   N/A     60  30  32 MISG      30.13R
MARTIN STATE   CLEAR     61  34  36 NW10G17   30.15R
ANNAPOLIS      CLEAR     60  34  37 N14       30.12R
FORT MEADE*    CLEAR     59  32  36 N7        30.15R

$$

MDZ012-015-019>023-300000-
MARYLAND EASTERN SHORE

CITY           SKY/WX    TMP DP  RH WIND       PRES   REMARKS
OCEAN CITY     CLEAR     48  41  76 SW6       30.11R
SALISBURY      CLEAR     60  35  39 N6        30.10R
BAY BRIDGE AP* CLEAR     57  37  47 N9        30.13R
CAMBRIDGE*     CLEAR     59  32  36 N9        30.11R

$$

MDZ017>025-300000-
SOUTHERN MARYLAND

CITY           SKY/WX    TMP DP  RH WIND       PRES   REMARKS
PATUXENT RIVER PTCLDY    58  39  49 N6        30.12R
ST INIGOES     NOT AVBL
LEONARDTOWN*   CLEAR     55  34  44 CALM      30.14R

$$

MDZ003>005-300000-
NORTH CENTRAL MARYLAND

CITY           SKY/WX    TMP DP  RH WIND       PRES   REMARKS
FREDERICK*       N/A    N/A N/A N/A N9        30.15R
HAGERSTOWN APT CLEAR     60  35  39 NE8       30.12R
WESTMINSTER*   CLEAR     57  36  44 NE7       30.14R

$$

MDZ501>502-300000-
WESTERN MARYLAND

CITY           SKY/WX    TMP DP  RH WIND       PRES   REMARKS
OAKLAND*       NOT AVBL
CUMBERLAND*    CLEAR     63  32  31 N7        30.15R

$$

VAZ025>031-300000-
SHENANDOAH VALLEY

CITY           SKY/WX    TMP DP  RH WIND       PRES   REMARKS
WINCHESTER*    CLEAR     59  36  41 E3        30.11R
FRONT ROYAL*   NOT AVBL
LURAY*         NOT AVBL
NEW MARKET*    NOT AVBL
STAUNTON*      PTCLDY    63  39  41 NE5       30.11R
WAYNESBORO*    CLOUDY    63  40  43 N3        30.10R

$$

WVZ021-048>050-054>055-300000-
EASTERN WEST VIRGINIA PANHANDLE

CITY           SKY/WX    TMP DP  RH WIND       PRES   REMARKS
MARTINSBURG    CLEAR     60  36  40 E10       30.11R
PETERSBURG*    CLEAR     64  40  41 E6        30.10S

$$

VAZ036>039-050-300000-
CENTRAL FOOTHILLS

CITY           SKY/WX    TMP DP  RH WIND       PRES   REMARKS
CHARLOTTESVILL MOCLDY    66  39  37 NE8       30.09R
CULPEPER*      CLEAR     64  39  38 N6        30.11R
ORANGE*        CLEAR     63  37  39 NE3       30.11R
GORDONSVILLE*  NOT AVBL
WARRENTON*     CLEAR     64  32  29 N10       30.10R

$$

VAZ055>057-300000-
NORTH AND CENTRAL PIEDMONT

CITY           SKY/WX    TMP DP  RH WIND       PRES   REMARKS
FREDERICKSBRG* CLEAR     65  37  35 NE6       30.10R
STAFFORD*      CLEAR     62  33  33 N9        30.15R

$$

NCZ024-NYZ072-PAZ021-071-VAZ022-071-300000-
OTHER REGIONAL OBSERVATIONS

CITY           SKY/WX    TMP DP  RH WIND       PRES   REMARKS
NEW YORK CITY  CLEAR     53  25  33 MISG      30.14R
PHILADELPHIA   CLEAR     57  28  33 N16G24    30.12R
PITTSBURGH     MOCLDY    58  29  33 N9        30.16R
ROANOKE        PTCLDY    71  47  42 SE8       30.05S
RICHMOND       MOCLDY    65  43  44 NE8       30.09R
RALEIGH        MOCLDY    70  50  49 CALM      30.07R

$$

ANZ530>537-300000-
MARINE OBSERVATIONS

STATION/POSITION TIME  TEMP    WIND        PRES
                       AIR SEA DIR/SP/G
                 (UTC) (F)     (DEG/KT/KT) (MB)
THOMAS PT LIGHT  2300   57 48   30/ 12/ 14   N/A
BALT KEY BRIDGE  2236   59     360/ 14/ 16 1019.9R
COVE POINT       2236   54      40/ 10/ 12 1020.1R
LEWISETTA        2236   57 56  110/  6/  6 1019.1R
SOLOMONS ISLAND  2236   59 49   10/  7/  9   N/A
PINEY POINT      2224          170/  2/  4   N/A

$$





USA.gov is the U.S. government's official web portal to all federal, state and local government web resources and services.